Weather observations for the past three days for
Brunswick County Airport
Imperial (Metric)
Date Time (edt) Wind (mph) Vis. (mi.) Weather Sky Cond. Temperature (ºF) Relative Humidity Wind Chill (°F) Heat Index (°F) Pressure Precipitation (in)
Air Dwpt 6 hour altimeter (in) sea level (mb) 1 hr 3 hr 6 hr
Max. Min.
04 21:55 SW 8 10.00 Fair CLR 68 53.6 60% 30.05 0.0
04 21:35 SW 8 10.00 Fair CLR 68 53.6 60% 30.05 0.0
04 21:15 SW 8 10.00 Fair CLR 68 55.4 64% 30.04 0.0
04 20:55 SW 8 10.00 Fair CLR 68 53.6 60% 30.04 0.0
04 20:35 S 6 10.00 Fair CLR 68 53.6 60% 30.03 0.0
04 20:15 SW 8 10.00 Fair CLR 68 51.8 56% 30.03 0.0
04 19:55 S 6 10.00 Fair CLR 68 51.8 74.1 67.8 56% 30.03 0.0
04 19:35 S 8 10.00 Fair CLR 68 51.8 56% 30.03 0.0
04 19:15 S 8 10.00 Fair CLR 69.8 51.8 53% 30.02 0.0
04 18:55 S 8 10.00 Fair CLR 69.8 51.8 53% 30.02 0.0
04 18:35 S 9 G 16 10.00 Fair CLR 69.8 51.8 53% 30.02 0.0
04 18:15 S 10 10.00 Fair CLR 71.6 51.8 50% 30.02 0.0
04 17:55 S 10 G 17 10.00 Fair CLR 71.6 51.8 50% 30.02 0.0
04 17:35 S 9 G 20 10.00 Fair CLR 71.6 51.8 50% 30.03 0.0
04 17:15 S 10 G 16 10.00 Fair CLR 71.6 53.6 53% 30.03 0.0
04 16:55 S 9 G 18 10.00 Fair CLR 71.6 53.6 53% 30.03 0.0
04 16:35 S 12 G 20 10.00 Fair CLR 71.6 51.8 50% 30.03 0.0
04 16:15 S 13 G 18 10.00 Fair CLR 71.6 51.8 50% 30.03 0.0
04 15:55 S 9 G 17 10.00 Fair CLR 73.4 53.6 50% 30.04 0.0
04 15:35 S 12 G 17 10.00 Fair CLR 73.4 51.8 47% 30.05 0.0
04 15:15 S 10 10.00 Fair CLR 73.4 53.6 50% 30.06 0.0
04 14:55 SW 13 G 20 10.00 Fair CLR 71.6 53.6 53% 30.06 0.0
04 14:35 SW 12 G 16 10.00 Fair CLR 73.4 53.6 50% 30.07 0.0
04 14:15 S 13 G 20 10.00 Fair CLR 71.6 51.8 50% 30.07 0.0
04 13:55 SW 10 G 17 10.00 Fair CLR 71.6 53.6 73.6 59 53% 30.07 0.0
04 13:35 S 9 10.00 Fair CLR 73.4 53.6 50% 30.07 0.0
04 13:15 SW 10 10.00 Fair CLR 71.6 53.6 53% 30.07 0.0
04 12:55 SW 10 10.00 Fair CLR 71.6 51.8 50% 30.07 0.0
04 12:35 SW 12 10.00 Fair CLR 71.6 51.8 50% 30.08 0.0
04 12:15 S 10 10.00 Fair CLR 71.6 51.8 50% 30.08 0.0
04 11:55 SW 12 10.00 Fair CLR 71.6 53.6 53% 30.09 0.0
04 11:35 SW 12 10.00 Fair CLR 71.6 53.6 53% 30.09 0.0
04 11:15 SW 8 10.00 Fair CLR 69.8 53.6 57% 30.08 0.0
04 10:55 S 7 10.00 Fair CLR 69.8 53.6 57% 30.08 0.0
04 10:35 Vrbl 6 10.00 Fair CLR 69.8 53.6 57% 30.08 0.0
04 10:15 Vrbl 6 10.00 Fair CLR 69.8 53.6 57% 30.08 0.0
04 09:55 S 8 10.00 Fair CLR 69.8 51.8 53% 30.08 0.0
04 09:35 Vrbl 7 10.00 Fair CLR 69.8 53.6 57% 30.09 0.0
04 09:15 SW 8 10.00 Fair CLR 68 51.8 56% 30.09 0.0
04 08:55 SW 3 10.00 Fair CLR 66.2 53.6 64% 30.09 0.0
04 08:35 Calm 10.00 Fair CLR 66.2 55.4 68% 30.08 0.0
04 08:15 Vrbl 1 10.00 Fair CLR 62.6 53.6 73% 30.08 0.0
04 07:55 NE 2 10.00 Fair CLR 59 51.8 63.1 49.5 77% 30.08 0.0
04 07:35 NE 3 10.00 Fair CLR 55.4 51.8 88% 30.09 0.0
04 07:15 NE 2 10.00 Fair CLR 53.6 50 88% 30.09 0.0
04 06:55 NE 3 10.00 Fair CLR 50 48.2 94% 30.08 0.0
04 06:35 NE 2 10.00 Fair CLR 50 48.2 94% 30.08 0.0
04 06:15 N 3 10.00 Fair CLR 50 48.2 94% 30.07 0.0
04 05:55 N 2 10.00 Fair CLR 50 48.2 94% 30.07 0.0
04 05:15 W 2 10.00 Fair CLR 59 50 72% 30.08 0.0
04 04:55 SW 7 10.00 Fair CLR 62.6 50 64% 30.08 0.0
04 04:35 SW 7 10.00 Fair CLR 60.8 50 68% 30.08 0.0
04 04:15 SW 6 10.00 Fair CLR 60.8 50 68% 30.08 0.0
04 03:55 SW 7 10.00 Fair CLR 60.8 50 68% 30.08 0.0
04 03:35 SW 7 10.00 Fair CLR 59 48.2 68% 30.08 0.0
04 03:15 SW 7 10.00 Fair CLR 59 50 72% 30.08 0.0
04 02:55 SW 6 10.00 Fair CLR 60.8 48.2 63% 30.08 0.0
04 02:35 SW 7 10.00 Fair CLR 62.6 48.2 60% 30.08 0.0
04 02:15 SW 6 10.00 Fair CLR 62.6 48.2 60% 30.09 0.0
04 01:55 SW 6 10.00 Fair CLR 60.8 48.2 62.6 60.1 63% 30.08 0.0
04 01:35 SW 8 10.00 Fair CLR 60.8 48.2 63% 30.09 0.0
04 01:15 SW 7 10.00 Fair CLR 60.8 48.2 63% 30.09 0.0
04 00:55 SW 8 10.00 Fair CLR 62.6 48.2 60% 30.09 0.0
04 00:35 SW 7 10.00 Fair CLR 60.8 48.2 63% 30.09 0.0
04 00:15 SW 9 10.00 Fair CLR 60.8 48.2 63% 30.09 0.0
03 23:55 SW 8 10.00 Fair CLR 60.8 48.2 63% 30.09 0.0
03 23:35 SW 9 10.00 Fair CLR 62.6 48.2 60% 30.09 0.0
03 23:15 SW 10 10.00 Fair CLR 62.6 48.2 60% 30.09 0.0
03 22:55 SW 7 10.00 Fair CLR 60.8 48.2 63% 30.09 0.0
03 22:35 SW 12 10.00 Fair CLR 62.6 46.4 56% 30.09 0.0
03 22:15 SW 12 10.00 Fair CLR 62.6 48.2 60% 30.09 0.0
03 21:55 SW 10 10.00 Fair CLR 60.8 48.2 63% 30.09 0.0
03 21:35 SW 8 10.00 Fair CLR 60.8 48.2 63% 30.08 0.0
03 21:15 SW 12 10.00 Fair CLR 60.8 46.4 59% 30.07 0.0
03 20:55 SW 10 10.00 Fair CLR 60.8 46.4 59% 30.07 0.0
03 20:35 SW 10 G 17 10.00 Fair CLR 60.8 46.4 59% 30.06 0.0
03 20:15 SW 9 10.00 Fair CLR 60.8 46.4 59% 30.06 0.0
03 19:55 SW 13 10.00 Fair CLR 62.6 46.4 70 62.1 56% 30.05 0.0
03 19:35 SW 10 10.00 Fair CLR 62.6 46.4 56% 30.04 0.0
03 19:15 SW 12 10.00 Fair CLR 64.4 46.4 52% 30.03 0.0
03 18:55 SW 13 10.00 Fair CLR 64.4 44.6 49% 30.03 0.0
03 18:35 SW 14 10.00 Fair CLR 64.4 44.6 49% 30.03 0.0
03 18:15 SW 16 10.00 Fair CLR 64.4 44.6 49% 30.04 0.0
03 17:55 SW 13 10.00 Fair CLR 66.2 44.6 46% 30.03 0.0
03 17:35 SW 18 10.00 Fair CLR 66.2 44.6 46% 30.03 0.0
03 17:15 SW 13 G 17 10.00 Fair CLR 66.2 44.6 46% 30.03 0.0
03 16:55 Vrbl 7 G 20 10.00 Fair CLR 68 39.2 35% 30.03 0.0
03 16:35 NW 8 10.00 Fair CLR 68 39.2 35% 30.03 0.0
03 16:15 NW 6 10.00 Fair CLR 68 37.4 33% 30.04 0.0
03 15:55 NW 7 10.00 Fair CLR 68 37.4 33% 30.04 0.0
03 15:35 NW 10 G 16 10.00 Fair CLR 68 39.2 35% 30.06 0.0
03 15:15 W 14 G 21 10.00 Fair CLR 68 37.4 33% 30.06 0.0
03 14:35 N 10 10.00 Fair CLR 66.2 39.2 37% 30.07 0.0
03 14:15 NW 9 G 16 10.00 Fair CLR 66.2 37.4 35% 30.08 0.0
03 13:55 N 8 10.00 Fair CLR 66.2 39.2 66.4 50 37% 30.09 0.0
03 13:35 NW 10 G 17 10.00 Fair CLR 64.4 37.4 37% 30.09 0.0
03 13:15 W 12 10.00 Fair CLR 64.4 37.4 37% 30.09 0.0
03 12:55 NW 10 10.00 Fair CLR 64.4 37.4 37% 30.09 0.0
03 12:35 NW 13 G 17 10.00 Fair CLR 64.4 37.4 37% 30.11 0.0
03 12:15 N 9 10.00 Fair CLR 62.6 37.4 39% 30.11 0.0
03 11:55 NW 6 10.00 Fair CLR 62.6 35.6 37% 30.11 0.0
03 11:35 NW 14 10.00 Fair CLR 60.8 35.6 39% 30.12 0.0
03 11:15 N 12 G 17 10.00 Fair CLR 60.8 33.8 36% 30.12 0.0
03 10:55 N 12 10.00 Fair CLR 60.8 35.6 39% 30.11 0.0
03 10:35 N 13 G 21 10.00 Fair CLR 60.8 35.6 39% 30.11 0.0
03 10:15 NW 9 G 20 10.00 Fair CLR 59 35.6 42% 30.11 0.0
03 09:55 N 9 10.00 Fair CLR 59 37.4 45% 30.11 0.0
03 09:35 N 10 10.00 Fair CLR 57.2 42.8 59% 30.1 0.0
03 09:15 N 10 10.00 Fair CLR 55.4 42.8 63% 30.1 0.0
03 08:35 N 7 10.00 Fair CLR 53.6 44.6 72% 30.1 0.0
03 08:15 N 6 10.00 Fair CLR 51.8 44.6 77% 30.09 0.0
03 07:55 Vrbl 6 10.00 Fair CLR 50 44.6 50.5 46.2 82% 48 30.08 0.0
03 07:35 N 5 10.00 Fair CLR 48.2 44.6 87% 47 30.08 0.0
03 07:15 N 5 10.00 Fair CLR 48.2 46.4 94% 47 30.07 0.0
03 06:55 Vrbl 3 10.00 Fair CLR 46.4 46.4 100% 30.06 0.0
03 06:35 NW 3 10.00 Fair CLR 46.4 46.4 100% 30.05 0.0
03 06:15 Vrbl 6 8.00 Mostly Cloudy BKN001 46.4 46.4 100% 44 30.03 0.0
03 05:55 NW 3 2.00 Fog/Mist OVC001 46.4 46.4 100% 30.02 0.0
03 05:35 NW 3 1.25 Fog/Mist SCT001 46.4 46.4 100% 30.02 0.0
03 05:15 NW 3 0.75 Fog/Mist BKN002 46.4 46.4 100% 30.02 0.0
03 04:55 NW 5 1.75 Fog/Mist BKN002 46.4 46.4 100% 45 30.01 0.0
03 04:35 NW 3 8.00 Fair CLR 46.4 46.4 100% 30.01 0.0
03 04:15 Vrbl 2 9.00 Fair CLR 48.2 46.4 94% 30 0.0
03 03:55 NW 3 9.00 Fair CLR 48.2 46.4 94% 30 0.0
03 03:35 Vrbl 2 10.00 Fair CLR 48.2 48.2 100% 29.99 0.0
03 03:15 NW 3 10.00 Fair CLR 48.2 48.2 100% 29.99 0.0
03 02:55 NW 3 9.00 Fair CLR 50 48.2 94% 29.98 0.0
03 02:35 NW 3 10.00 Fair CLR 50 48.2 94% 29.98 0.0
03 02:15 NW 5 10.00 Fair CLR 50 48.2 94% 49 29.98 0.0
03 01:55 NW 3 10.00 Mostly Cloudy BKN003 50 50 55.6 50.4 100% 29.97 0.0
03 01:35 NW 5 10.00 Mostly Cloudy BKN003 50 50 100% 49 29.97 0.0
03 01:15 Vrbl 3 10.00 Fair CLR 51.8 50 94% 29.96 0.0
03 00:55 NW 3 10.00 Partly Cloudy FEW007 SCT110 51.8 50 94% 29.95 0.0
03 00:35 N 5 10.00 Overcast BKN007 OVC110 51.8 50 94% 29.94 0.0
03 00:15 N 6 10.00 Overcast OVC007 53.6 51.8 94% 29.95 0.0
02 23:55 N 6 10.00 Overcast BKN009 OVC110 53.6 51.8 94% 29.94 0.0
02 23:35 N 8 10.00 Overcast BKN007 OVC095 53.6 51.8 94% 29.93 0.0
02 23:15 N 8 10.00 Overcast SCT007 OVC085 53.6 51.8 94% 29.92 0.0
02 22:55 N 10 10.00 Overcast SCT007 SCT017 OVC085 53.6 51.8 94% 29.92 0.0
02 22:35 N 6 10.00 Overcast OVC007 53.6 51.8 94% 29.92 0.0
02 22:15 N 8 10.00 Overcast OVC009 53.6 51.8 94% 29.92 0.0
02 21:55 N 8 10.00 Overcast BKN007 OVC011 53.6 51.8 94% 29.91 0.0
02 21:35 NW 6 10.00 Overcast SCT008 OVC015 55.4 53.6 94% 29.91 0.0
02 21:15 N 8 10.00 Overcast FEW008 OVC015 55.4 53.6 94% 29.89 0.0
02 20:55 N 8 10.00 Overcast BKN008 OVC015 55.4 53.6 94% 29.88 0.0
02 20:35 N 7 10.00 Overcast BKN008 OVC013 55.4 53.6 94% 29.88 0.0
02 20:15 N 7 10.00 Overcast OVC008 55.4 53.6 94% 29.86 0.0
02 19:35 N 8 10.00 Overcast BKN008 BKN040 OVC055 55.4 53.6 94% 29.85 0.0
02 19:15 N 8 10.00 Overcast SCT008 SCT033 OVC049 55.4 53.6 94% 29.84 0.0
02 18:55 N 7 10.00 Overcast FEW017 FEW028 OVC049 55.4 53.6 94% 29.84 0.0
02 18:35 N 10 G 16 10.00 Light Rain OVC045 55.4 53.6 94% 29.84 0.0
02 18:15 N 9 10.00 Light Rain OVC043 55.4 53.6 94% 29.84 0.0
02 17:55 N 9 10.00 Light Rain FEW035 OVC043 57.2 55.4 94% 29.83 0.0 0.04
02 17:35 N 9 5.00 Light Rain Fog/Mist FEW009 FEW013 OVC033 57.2 55.4 94% 29.82 0.0
02 17:15 N 8 8.00 Light Rain SCT007 BKN013 OVC033 57.2 55.4 94% 29.83 0.0
02 16:35 N 15 G 20 10.00 Light Drizzle SCT010 BKN030 OVC036 57.2 55.4 94% 29.79 0.0
02 16:15 N 12 G 18 2.50 Light Rain Fog/Mist BKN008 BKN012 OVC018 57.2 55.4 94% 29.81 0.0
02 15:55 N 9 G 17 9.00 Light Drizzle SCT008 BKN014 OVC026 57.2 55.4 94% 29.81 0.0 0.01
02 15:35 N 12 G 18 10.00 Overcast BKN008 BKN013 OVC027 57.2 55.4 94% 29.82 0.0
02 15:15 N 13 G 17 10.00 Light Rain BKN008 OVC024 57.2 55.4 94% 29.82 0.0
02 14:35 N 12 10.00 Light Drizzle FEW010 SCT014 OVC021 57.2 55.4 94% 29.84 0.0
02 14:15 N 12 10.00 Light Rain BKN013 OVC019 57.2 55.4 94% 29.84 0.0
02 13:55 N 10 10.00 Light Rain BKN009 OVC016 57.2 55.4 59.4 56.1 94% 29.84 0.0 0.02
02 13:35 N 14 10.00 Light Rain OVC009 57.2 55.4 94% 29.83 0.0
02 13:15 N 14 8.00 Light Rain OVC007 57.2 55.4 94% 29.84 0.0
02 12:55 N 10 5.00 Light Rain Fog/Mist SCT007 BKN032 OVC050 57.2 57.2 100% 29.86 0.0 0.07
02 12:35 N 12 G 17 4.00 Rain Fog/Mist SCT030 SCT045 OVC055 57.2 55.4 94% 29.87 0.0
02 12:15 N 13 4.00 Light Rain Fog/Mist SCT007 BKN044 OVC050 57.2 55.4 94% 29.87 0.0
02 11:55 N 12 7.00 Light Rain Fog/Mist BKN007 OVC049 57.2 55.4 94% 29.88 0.0 0.07
02 11:35 N 15 G 20 5.00 Light Rain Fog/Mist BKN007 OVC048 57.2 55.4 94% 29.87 0.0
02 10:55 N 8 5.00 Light Rain Fog/Mist BKN046 OVC050 59 57.2 94% 29.89 0.0 0.04
02 10:35 N 9 6.00 Light Drizzle Fog/Mist SCT009 BKN055 OVC090 59 57.2 94% 29.88 0.0
02 10:15 N 13 10.00 Light Rain SCT007 BKN060 OVC090 59 57.2 94% 29.85 0.0
02 09:55 N 12 10.00 Light Rain BKN007 BKN036 OVC110 59 57.2 94% 29.85 0.0
02 09:35 N 12 10.00 Overcast SCT031 SCT080 OVC110 59 57.2 94% 29.85 0.0
02 08:55 N 13 G 16 10.00 Overcast FEW007 SCT070 OVC100 57.2 55.4 94% 29.86 0.0
02 08:35 N 9 10.00 Overcast FEW055 OVC110 57.2 55.4 94% 29.87 0.0
02 07:55 N 10 10.00 Light Rain BKN055 OVC100 55.4 55.4 61.5 56.1 100% 29.87 0.0 0.02
02 07:35 N 7 10.00 Light Rain BKN055 OVC065 55.4 55.4 100% 29.88 0.0
02 07:15 N 9 10.00 Light Drizzle OVC065 57.2 55.4 94% 29.86 0.0
02 06:55 N 9 10.00 Light Drizzle OVC065 57.2 55.4 94% 29.86 0.0 0.01
02 06:35 N 7 10.00 Light Rain OVC065 57.2 55.4 94% 29.85 0.0
02 06:15 N 6 10.00 Light Rain OVC065 57.2 57.2 100% 29.84 0.0
02 05:55 N 6 10.00 Light Rain SCT075 BKN085 OVC120 57.2 55.4 94% 29.84 0.0 0.03
02 05:35 N 7 10.00 Light Rain SCT070 SCT100 BKN120 57.2 55.4 94% 29.84 0.0
02 05:15 N 7 9.00 Light Rain OVC070 57.2 55.4 94% 29.84 0.0
02 04:55 N 6 10.00 Light Rain OVC070 59 57.2 94% 29.86 0.0
02 04:35 Vrbl 2 10.00 Overcast OVC070 59 57.2 94% 29.85 0.0
02 04:15 N 5 10.00 Overcast OVC070 59 57.2 94% 29.83 0.0
02 03:55 Vrbl 6 10.00 Overcast FEW003 OVC070 59 59 100% 29.83 0.0
02 03:35 N 2 10.00 Overcast OVC070 60.8 59 94% 29.83 0.0
02 03:15 N 3 10.00 Overcast OVC080 60.8 59 94% 29.83 0.0
02 02:55 N 5 10.00 Overcast OVC070 60.8 59 94% 29.84 0.0
02 02:35 N 5 10.00 Overcast OVC080 60.8 60.8 100% 29.85 0.0
02 02:15 N 6 10.00 Overcast OVC080 60.8 60.8 100% 29.85 0.0
02 01:55 N 3 10.00 Overcast OVC090 60.8 60.8 63.7 61.2 100% 29.86 0.0 0.01
02 01:35 N 3 10.00 Light Drizzle OVC100 60.8 60.8 100% 29.86 0.0
02 01:15 N 2 10.00 Light Drizzle BKN100 OVC120 60.8 60.8 100% 29.87 0.0
02 00:55 NE 2 10.00 Overcast OVC090 60.8 60.8 100% 29.88 0.0
02 00:35 N 3 10.00 Light Drizzle OVC090 60.8 60.8 100% 29.88 0.0
02 00:15 N 2 10.00 Light Rain OVC110 60.8 60.8 100% 29.89 0.0
01 23:55 N 2 10.00 Light Rain OVC110 60.8 59 94% 29.89 0.0
01 23:35 N 2 10.00 Mostly Cloudy BKN110 62.6 59 88% 29.89 0.0
01 23:15 N 3 10.00 Light Rain SCT110 62.6 59 88% 29.89 0.0
01 22:55 NE 3 10.00 Light Rain FEW090 BKN120 62.6 59 88% 29.9 0.0
01 22:35 NE 3 10.00 Overcast SCT017 BKN090 OVC120 62.6 57.2 83% 29.91 0.0
01 22:15 Vrbl 3 10.00 Overcast SCT017 OVC090 62.6 57.2 83% 29.91 0.0
Date Time (edt) Wind (mph) Vis. (mi.) Weather Sky Cond. Air Dwpt Max. Min. Relative Humidity Wind Chill (°F) Heat Index (°F) altimeter (in) sea level (mb) 1 hr 3 hr 6 hr
6 hour
Temperature (ºF) Pressure Precipitation (in)